Regional Weather Roundup
Issued by NWS

Home | Current Version | Previous Version | Graphics & Text | Print | Product List | Glossary On
Versions: 1 2 3 4 5 6 7 8 9 10 11 12 13 14 15 16 17 18 19 20 21 22 23 24 25 26 27 28 29 30 31 32 33 34 35 36 37 38 39 40 41 42 43 44 45 46 47 48 49 50
000
ASUS45 KBOI 031610
RWRID

IDAHO REGIONAL WEATHER ROUNDUP
NATIONAL WEATHER SERVICE BOISE ID
1000 AM MDT TUE MAY 03 2016

NOTE: "FAIR" INDICATES FEW OR NO CLOUDS BELOW 12000 FEET
WITH NO SIGNIFICANT WEATHER AND/OR OBSTRUCTIONS TO VISIBILITY

IDZ012-014-031700-
SOUTHWEST IDAHO


CITY           SKY/WX    TMP DP  RH WIND       PRES   REMARKS
BOISE          SUNNY     63  34  33 CALM      30.16R
CALDWELL       SUNNY     61  41  47 N5        30.16S
MOUNTAIN HOME  SUNNY     62  38  41 SE15      30.17R
$$

IDZ016-017-031700-
SOUTHCENTRAL IDAHO


CITY           SKY/WX    TMP DP  RH WIND       PRES   REMARKS
BURLEY         SUNNY     55  41  59 E3        30.22S
JEROME         SUNNY     58  42  55 NE10      30.22R
TWIN FALLS     SUNNY     61  35  37 CALM      30.22R
$$

IDZ019>023-031700-
SOUTHEAST IDAHO


CITY           SKY/WX    TMP DP  RH WIND       PRES   REMARKS
IDAHO FALLS    SUNNY     56  31  38 CALM      30.27S
POCATELLO      SUNNY     57  36  45 CALM      30.26S
REXBURG        SUNNY     53  29  39 CALM      30.27S
$$

IDZ006-010-011-018-031-032-031700-
CENTRAL IDAHO MOUNTAINS


CITY           SKY/WX    TMP DP  RH WIND       PRES   REMARKS
MCCALL         SUNNY     50  40  68 CALM      30.21S
HAILEY         SUNNY     54  30  40 NW9       30.28S
STANLEY          N/A     46  29  51 CALM      30.31S
SALMON         SUNNY     52  30  43 CALM      30.23F
CHALLIS        SUNNY     53  28  38 CALM      30.26S
$$

IDZ002-004-006-007-026-031700-
NORTHERN IDAHO


CITY           SKY/WX    TMP DP  RH WIND       PRES   REMARKS
LEWISTON       SUNNY     63  45  51 E10       30.08F
LOWELL           N/A     54  44  69 N5        30.17F
COEUR D`ALENE  SUNNY     63  45  51 NE10      30.09S
MULLAN PASS    SUNNY     59  34  39 CALM      30.23S
$$



USA.gov is the U.S. government's official web portal to all federal, state and local government web resources and services.